• In Denmark
  • List of Countries
  • For 7 days
  • Water Temperature
  • Satellite Maps
  • Weather Map
  • Weather Widgets
  • user-avatar
    Login

    Hourly Weather Cieniawa

    Today, 26 September, Wednesday

    Time Temperature Precipitation Wind Pressure Humidity
    00:00 +2°C° 0 mm 2 mps 729 mmHg 83%
    01:00 +1°C° 0 mm 2 mps 729 mmHg 85%
    02:00 +1°C° 0 mm 2 mps 729 mmHg 86%
    03:00 +1°C° 0 mm 2 mps 729 mmHg 87%
    04:00 +2°C° 0 mm 1 mps 729 mmHg 88%
    05:00 +3°C° 0 mm 1 mps 730 mmHg 84%
    06:00 +4°C° 0 mm 1 mps 730 mmHg 80%
    07:00 +5°C° 0 mm 1 mps 730 mmHg 76%
    08:00 +6°C° 0 mm 2 mps 730 mmHg 66%
    09:00 +8°C° 0 mm 2 mps 730 mmHg 56%
    10:00 +12°C° 0 mm 2 mps 730 mmHg 47%
    11:00 +12°C° 0 mm 2 mps 730 mmHg 43%
    12:00 +13°C° 0 mm 2 mps 729 mmHg 40%
    13:00 +14°C° 0 mm 2 mps 729 mmHg 36%
    14:00 +14°C° 0 mm 2 mps 728 mmHg 40%
    15:00 +14°C° 0 mm 2 mps 728 mmHg 43%
    16:00 +13°C° 0 mm 2 mps 727 mmHg 47%
    17:00 +12°C° 0 mm 2 mps 727 mmHg 50%
    18:00 +10°C° 0 mm 2 mps 727 mmHg 54%
    19:00 +8°C° 0 mm 2 mps 727 mmHg 57%
    20:00 +8°C° 0 mm 2 mps 726 mmHg 58%
    21:00 +8°C° 0 mm 2 mps 726 mmHg 60%
    22:00 +8°C° 0 mm 2 mps 726 mmHg 61%
    23:00 +8°C° 0 mm 2 mps 726 mmHg 59%

    Tomorrow, 27 September, Thursday

    Time Temperature Precipitation Wind Pressure Humidity
    00:00 +8°C° 0 mm 2 mps 726 mmHg 57%
    01:00 +8°C° 0 mm 2 mps 726 mmHg 55%
    02:00 +7°C° 0 mm 2 mps 725 mmHg 55%
    03:00 +7°C° 0 mm 2 mps 725 mmHg 55%
    04:00 +5°C° 0 mm 3 mps 724 mmHg 55%
    05:00 +7°C° 0 mm 3 mps 724 mmHg 53%
    06:00 +8°C° 0 mm 3 mps 724 mmHg 51%
    07:00 +9°C° 0 mm 3 mps 724 mmHg 49%
    08:00 +10°C° 0 mm 3 mps 724 mmHg 47%
    09:00 +12°C° 0 mm 3 mps 725 mmHg 44%
    10:00 +15°C° 0 mm 2 mps 725 mmHg 42%
    11:00 +16°C° 0 mm 3 mps 724 mmHg 44%
    12:00 +17°C° 0 mm 3 mps 724 mmHg 46%
    13:00 +18°C° 0 mm 3 mps 724 mmHg 47%
    14:00 +18°C° 0 mm 3 mps 724 mmHg 50%
    15:00 +18°C° 0 mm 2 mps 723 mmHg 53%
    16:00 +18°C° 0 mm 2 mps 723 mmHg 56%
    17:00 +16°C° 0 mm 2 mps 723 mmHg 61%
    18:00 +14°C° 0 mm 2 mps 722 mmHg 65%
    19:00 +12°C° 0 mm 2 mps 722 mmHg 69%
    20:00 +10°C° 0 mm 2 mps 722 mmHg 70%
    21:00 +10°C° 0 mm 2 mps 722 mmHg 71%
    22:00 +9°C° 0 mm 2 mps 721 mmHg 72%
    23:00 +9°C° 0 mm 2 mps 721 mmHg 72%

    Day after tomorrow, 28 September, Friday

    Time Temperature Precipitation Wind Pressure Humidity
    00:00 +9°C° 0 mm 2 mps 720 mmHg 72%
    01:00 +9°C° 0 mm 2 mps 720 mmHg 73%
    02:00 +9°C° 0 mm 2 mps 719 mmHg 73%
    03:00 +8°C° 0 mm 2 mps 719 mmHg 73%
    04:00 +8°C° 0 mm 2 mps 718 mmHg 73%
    05:00 +9°C° 0 mm 2 mps 718 mmHg 72%
    06:00 +9°C° 0 mm 2 mps 718 mmHg 70%
    07:00 +10°C° 0 mm 2 mps 718 mmHg 68%
    08:00 +13°C° 0 mm 2 mps 718 mmHg 61%
    09:00 +16°C° 0 mm 3 mps 718 mmHg 53%
    10:00 +18°C° 0 mm 3 mps 718 mmHg 45%
    11:00 +19°C° 0 mm 3 mps 718 mmHg 43%
    12:00 +20°C° 0 mm 3 mps 717 mmHg 41%
    13:00 +20°C° 0 mm 3 mps 717 mmHg 39%
    14:00 +20°C° 0 mm 3 mps 717 mmHg 43%
    15:00 +19°C° 0 mm 2 mps 716 mmHg 46%
    16:00 +18°C° 0 mm 2 mps 716 mmHg 50%
    17:00 +16°C° 0 mm 2 mps 716 mmHg 57%
    18:00 +14°C° 0 mm 2 mps 716 mmHg 65%
    19:00 +12°C° 0 mm 2 mps 716 mmHg 72%
    20:00 +12°C° 0 mm 1 mps 716 mmHg 77%
    21:00 +11°C° 0 mm 1 mps 716 mmHg 82%
    22:00 +11°C° 0 mm 1 mps 717 mmHg 87%
    23:00 +11°C° 0.1 mm 1 mps 717 mmHg 89%

    29 September, Saturday

    Time Temperature Precipitation Wind Pressure Humidity
    00:00 +11°C° 0.1 mm 1 mps 717 mmHg 90%
    01:00 +9°C° 0.1 mm 2 mps 717 mmHg 92%
    02:00 +9°C° 0.1 mm 2 mps 717 mmHg 92%
    03:00 +9°C° 0.1 mm 2 mps 717 mmHg 92%
    04:00 +9°C° 0.1 mm 2 mps 717 mmHg 91%
    05:00 +9°C° 0.2 mm 2 mps 717 mmHg 91%
    06:00 +8°C° 0.2 mm 2 mps 717 mmHg 91%
    07:00 +8°C° 0.2 mm 3 mps 717 mmHg 92%
    08:00 +8°C° 0.2 mm 3 mps 717 mmHg 89%
    09:00 +8°C° 0.2 mm 3 mps 718 mmHg 87%
    10:00 +9°C° 0.2 mm 3 mps 718 mmHg 84%
    11:00 +9°C° 0.1 mm 3 mps 718 mmHg 79%
    12:00 +10°C° 0.1 mm 3 mps 718 mmHg 75%
    13:00 +10°C° 0.1 mm 3 mps 718 mmHg 70%
    14:00 +10°C° 0 mm 3 mps 719 mmHg 69%
    15:00 +10°C° 0 mm 3 mps 719 mmHg 67%
    16:00 +10°C° 0 mm 3 mps 719 mmHg 66%
    17:00 +9°C° 0 mm 3 mps 719 mmHg 71%
    18:00 +8°C° 0 mm 2 mps 719 mmHg 76%
    19:00 +7°C° 0 mm 2 mps 720 mmHg 81%
    20:00 +6°C° 0 mm 2 mps 720 mmHg 84%
    21:00 +6°C° 0 mm 2 mps 720 mmHg 86%
    22:00 +5°C° 0 mm 2 mps 720 mmHg 89%
    23:00 +5°C° 0 mm 2 mps 720 mmHg 90%

    30 September, Sunday

    Time Temperature Precipitation Wind Pressure Humidity
    00:00 +5°C° 0 mm 2 mps 720 mmHg 92%
    01:00 +4°C° 0 mm 2 mps 720 mmHg 93%
    02:00 +4°C° 0 mm 2 mps 720 mmHg 94%
    03:00 +4°C° 0 mm 2 mps 720 mmHg 95%
    04:00 +5°C° 0 mm 1 mps 720 mmHg 96%
    05:00 +5°C° 0 mm 1 mps 720 mmHg 94%
    06:00 +6°C° 0 mm 1 mps 720 mmHg 92%
    07:00 +6°C° 0 mm 1 mps 720 mmHg 90%
    08:00 +8°C° 0 mm 2 mps 720 mmHg 82%
    09:00 +10°C° 0 mm 2 mps 720 mmHg 74%
    10:00 +13°C° 0 mm 2 mps 720 mmHg 66%
    11:00 +14°C° 0 mm 2 mps 720 mmHg 63%
    12:00 +15°C° 0 mm 2 mps 719 mmHg 60%
    13:00 +17°C° 0 mm 2 mps 719 mmHg 57%
    14:00 +16°C° 0 mm 2 mps 719 mmHg 61%
    15:00 +16°C° 0 mm 2 mps 718 mmHg 64%
    16:00 +15°C° 0 mm 2 mps 718 mmHg 67%
    17:00 +14°C° 0 mm 1 mps 718 mmHg 75%
    18:00 +12°C° 0 mm 1 mps 718 mmHg 82%
    19:00 +10°C° 0 mm 1 mps 718 mmHg 90%
    20:00 +10°C° 0 mm 1 mps 717 mmHg 91%
    21:00 +10°C° 0 mm 1 mps 717 mmHg 92%
    22:00 +9°C° 0 mm 1 mps 717 mmHg 93%
    23:00 +8°C° 0 mm 0 mps 717 mmHg 93%

    1 October, Monday

    Time Temperature Precipitation Wind Pressure Humidity
    00:00 +8°C° 0 mm 0 mps 716 mmHg 93%
    01:00 +8°C° 0 mm 0 mps 716 mmHg 92%
    02:00 +8°C° 0 mm 0 mps 716 mmHg 92%
    03:00 +8°C° 0 mm 0 mps 716 mmHg 92%
    04:00 +8°C° 0 mm 0 mps 716 mmHg 92%
    05:00 +8°C° 0 mm 0 mps 716 mmHg 89%
    06:00 +9°C° 0 mm 0 mps 716 mmHg 87%
    07:00 +10°C° 0 mm 0 mps 716 mmHg 85%
    08:00 +12°C° 0 mm 0 mps 716 mmHg 77%
    09:00 +14°C° 0 mm 0 mps 716 mmHg 70%
    10:00 +16°C° 0 mm 0 mps 716 mmHg 62%
    11:00 +18°C° 0.1 mm 1 mps 716 mmHg 62%
    12:00 +19°C° 0.1 mm 1 mps 715 mmHg 61%
    13:00 +19°C° 0.1 mm 1 mps 715 mmHg 61%
    14:00 +18°C° 0.5 mm 1 mps 715 mmHg 65%
    15:00 +18°C° 0.5 mm 1 mps 715 mmHg 70%
    16:00 +16°C° 0.5 mm 1 mps 714 mmHg 75%
    17:00 +15°C° 0.5 mm 1 mps 714 mmHg 79%
    18:00 +14°C° 0.5 mm 1 mps 714 mmHg 83%
    19:00 +13°C° 0.5 mm 1 mps 714 mmHg 88%
    20:00 +13°C° 0.9 mm 1 mps 714 mmHg 90%
    21:00 +12°C° 0.9 mm 1 mps 714 mmHg 92%
    22:00 +12°C° 0.9 mm 1 mps 714 mmHg 94%
    23:00 +12°C° 1.7 mm 2 mps 714 mmHg 94%
    Show more